User: anonymous   Login
Location: Unspecified
(0.0000°N, 0.0000°E)
Time: 12:49:17
(UTC+00:00)
Language:

NOSS 2-2 (D) - Orbit

View from above orbital plane
View from above orbital plane
View from above satellite
View from above satellite

Ground track
Ground track

The orbit data is extracted from the following two-line orbital elements,

1 21808U 91076D   17080.76543372 0.00000090  00000-0  30531-4 0    03
2 21808  63.3520 326.0064 0739000  24.0839 335.9160 13.41106213    05
Epoch (UTC): 21 March 2017 18:22:13
Eccentricity: 0.0739000
inclination: 63.3520°
perigee height: 552 km
apogee height: 1658 km
right ascension of ascending node: 326.0064°
argument of perigee: 24.0839°
revolutions per day: 13.41106213
mean anomaly at epoch: 335.9160°
orbit number at epoch: 0

The dashed part of the orbit path shows where the satellite is in the earth's shadow,  

DLR